When you browse on this site, cookies collect data to enhance your experience and personalize the content and advertising you see.
Visit our Privacy Policy to learn more. By continuing to use the site, you agree to this use of cookies and data.
  • In United States
  • List of Countries
  • For 7 days
  • Water Temperature
  • Satellite Maps
  • Weather Map
  • Weather Widgets
  • user-avatar
    Login

    Hourly Weather Shkoder

    Today, 13 December, Thursday

    Time Temperature Precipitation Wind Pressure Humidity
    00:00 +1°C° 0 mm 2 mps 742 mmHg 53%
    01:00 +1°C° 0 mm 2 mps 742 mmHg 52%
    02:00 +1°C° 0 mm 2 mps 742 mmHg 51%
    03:00 +1°C° 0 mm 2 mps 742 mmHg 50%
    04:00 +1°C° 0 mm 2 mps 742 mmHg 49%
    05:00 +1°C° 0 mm 2 mps 741 mmHg 50%
    06:00 0°C° 0 mm 3 mps 741 mmHg 50%
    07:00 0°C° 0 mm 3 mps 741 mmHg 50%
    08:00 +2°C° 0 mm 3 mps 741 mmHg 49%
    09:00 +3°C° 0 mm 3 mps 740 mmHg 48%
    10:00 +4°C° 0 mm 3 mps 740 mmHg 47%
    11:00 +6°C° 0 mm 2 mps 740 mmHg 46%
    12:00 +7°C° 0 mm 2 mps 740 mmHg 45%
    13:00 +7°C° 0 mm 3 mps 739 mmHg 46%
    14:00 +5°C° 0 mm 3 mps 739 mmHg 51%
    15:00 +5°C° 0 mm 3 mps 739 mmHg 57%
    16:00 +4°C° 0 mm 3 mps 739 mmHg 62%
    17:00 +4°C° 0.1 mm 3 mps 739 mmHg 64%
    18:00 +3°C° 0.1 mm 3 mps 739 mmHg 67%
    19:00 +3°C° 0.1 mm 3 mps 738 mmHg 70%
    20:00 +3°C° 0.4 mm 3 mps 738 mmHg 73%
    21:00 +3°C° 0.4 mm 3 mps 738 mmHg 75%
    22:00 +3°C° 0.4 mm 3 mps 738 mmHg 78%
    23:00 +3°C° 1.3 mm 3 mps 738 mmHg 81%

    Tomorrow, 14 December, Friday

    Time Temperature Precipitation Wind Pressure Humidity
    00:00 +3°C° 1.3 mm 3 mps 738 mmHg 84%
    01:00 +3°C° 1.3 mm 3 mps 738 mmHg 88%
    02:00 +3°C° 1.2 mm 3 mps 738 mmHg 89%
    03:00 +3°C° 1.2 mm 3 mps 738 mmHg 90%
    04:00 +4°C° 1.2 mm 3 mps 738 mmHg 91%
    05:00 +4°C° 0.8 mm 3 mps 738 mmHg 91%
    06:00 +4°C° 0.8 mm 3 mps 738 mmHg 91%
    07:00 +4°C° 0.8 mm 3 mps 738 mmHg 92%
    08:00 +5°C° 1.7 mm 3 mps 738 mmHg 92%
    09:00 +5°C° 1.7 mm 3 mps 738 mmHg 92%
    10:00 +5°C° 1.7 mm 3 mps 738 mmHg 92%
    11:00 +7°C° 1.8 mm 3 mps 737 mmHg 92%
    12:00 +7°C° 1.8 mm 3 mps 737 mmHg 92%
    13:00 +7°C° 1.8 mm 3 mps 737 mmHg 92%
    14:00 +7°C° 1.3 mm 3 mps 737 mmHg 92%
    15:00 +7°C° 1.3 mm 3 mps 737 mmHg 92%
    16:00 +8°C° 1.3 mm 3 mps 737 mmHg 92%
    17:00 +8°C° 1.5 mm 3 mps 737 mmHg 93%
    18:00 +8°C° 1.5 mm 3 mps 737 mmHg 93%
    19:00 +8°C° 1.5 mm 3 mps 737 mmHg 93%
    20:00 +8°C° 1.6 mm 3 mps 737 mmHg 93%
    21:00 +8°C° 1.6 mm 3 mps 737 mmHg 93%
    22:00 +9°C° 1.6 mm 3 mps 737 mmHg 94%
    23:00 +9°C° 1.3 mm 3 mps 737 mmHg 93%

    Day after tomorrow, 15 December, Saturday

    Time Temperature Precipitation Wind Pressure Humidity
    00:00 +9°C° 1.3 mm 3 mps 737 mmHg 92%
    01:00 +8°C° 1.3 mm 3 mps 737 mmHg 92%
    02:00 +8°C° 1.1 mm 3 mps 737 mmHg 91%
    03:00 +8°C° 1.1 mm 3 mps 736 mmHg 91%
    04:00 +8°C° 1.1 mm 2 mps 736 mmHg 91%
    05:00 +8°C° 1.2 mm 2 mps 736 mmHg 90%
    06:00 +8°C° 1.2 mm 2 mps 736 mmHg 90%
    07:00 +8°C° 1.2 mm 2 mps 736 mmHg 90%
    08:00 +9°C° 1.3 mm 3 mps 736 mmHg 90%
    09:00 +9°C° 1.3 mm 3 mps 736 mmHg 90%
    10:00 +9°C° 1.3 mm 3 mps 737 mmHg 90%
    11:00 +9°C° 2.4 mm 3 mps 736 mmHg 91%
    12:00 +9°C° 2.4 mm 3 mps 736 mmHg 92%
    13:00 +9°C° 2.4 mm 2 mps 736 mmHg 93%
    14:00 +9°C° 2.2 mm 2 mps 736 mmHg 94%
    15:00 +9°C° 2.2 mm 2 mps 736 mmHg 94%
    16:00 +8°C° 2.2 mm 2 mps 736 mmHg 94%
    17:00 +8°C° 1.4 mm 2 mps 736 mmHg 94%
    18:00 +8°C° 1.4 mm 2 mps 737 mmHg 94%
    19:00 +8°C° 1.4 mm 2 mps 737 mmHg 94%
    20:00 +8°C° 1.6 mm 2 mps 737 mmHg 94%
    21:00 +8°C° 1.6 mm 2 mps 737 mmHg 95%
    22:00 +8°C° 1.6 mm 2 mps 737 mmHg 95%
    23:00 +8°C° 1.8 mm 2 mps 737 mmHg 96%

    16 December, Sunday

    Time Temperature Precipitation Wind Pressure Humidity
    00:00 +8°C° 1.8 mm 2 mps 737 mmHg 96%
    01:00 +8°C° 1.8 mm 2 mps 737 mmHg 96%
    02:00 +7°C° 1.7 mm 2 mps 737 mmHg 95%
    03:00 +7°C° 1.7 mm 2 mps 737 mmHg 95%
    04:00 +7°C° 1.7 mm 2 mps 737 mmHg 94%
    05:00 +6°C° 1.2 mm 2 mps 737 mmHg 93%
    06:00 +6°C° 1.2 mm 2 mps 737 mmHg 91%
    07:00 +6°C° 1.2 mm 2 mps 738 mmHg 90%
    08:00 +6°C° 0.6 mm 2 mps 738 mmHg 89%
    09:00 +6°C° 0.6 mm 2 mps 738 mmHg 88%
    10:00 +5°C° 0.6 mm 2 mps 739 mmHg 87%
    11:00 +5°C° 0.2 mm 3 mps 739 mmHg 85%
    12:00 +5°C° 0.2 mm 3 mps 739 mmHg 83%
    13:00 +5°C° 0.2 mm 3 mps 739 mmHg 81%
    14:00 +5°C° 0 mm 3 mps 739 mmHg 81%
    15:00 +4°C° 0 mm 3 mps 740 mmHg 82%
    16:00 +5°C° 0 mm 2 mps 740 mmHg 82%
    17:00 +4°C° 0 mm 2 mps 741 mmHg 83%
    18:00 +3°C° 0 mm 2 mps 741 mmHg 83%
    19:00 +3°C° 0 mm 2 mps 741 mmHg 83%
    20:00 +3°C° 0 mm 2 mps 742 mmHg 82%
    21:00 +3°C° 0 mm 2 mps 742 mmHg 82%
    22:00 +3°C° 0 mm 2 mps 742 mmHg 81%
    23:00 +3°C° 0 mm 2 mps 742 mmHg 80%

    17 December, Monday

    Time Temperature Precipitation Wind Pressure Humidity
    00:00 +3°C° 0 mm 2 mps 742 mmHg 80%
    01:00 +3°C° 0 mm 2 mps 742 mmHg 79%
    02:00 +5°C° 0 mm 1 mps 741 mmHg 78%
    03:00 +5°C° 0 mm 1 mps 741 mmHg 78%
    04:00 +5°C° 0 mm 1 mps 741 mmHg 77%
    05:00 +6°C° 0 mm 1 mps 741 mmHg 77%
    06:00 +6°C° 0 mm 1 mps 741 mmHg 77%
    07:00 +6°C° 0 mm 1 mps 741 mmHg 77%
    08:00 +7°C° 0 mm 1 mps 742 mmHg 77%
    09:00 +8°C° 0 mm 1 mps 742 mmHg 77%
    10:00 +9°C° 0 mm 1 mps 742 mmHg 77%
    11:00 +9°C° 0 mm 1 mps 742 mmHg 76%
    12:00 +10°C° 0 mm 1 mps 741 mmHg 75%
    13:00 +10°C° 0 mm 1 mps 741 mmHg 73%
    14:00 +9°C° 0 mm 1 mps 741 mmHg 75%
    15:00 +9°C° 0 mm 1 mps 742 mmHg 78%
    16:00 +7°C° 0 mm 0 mps 742 mmHg 80%
    17:00 +8°C° 0 mm 1 mps 742 mmHg 80%
    18:00 +7°C° 0 mm 1 mps 742 mmHg 81%
    19:00 +7°C° 0 mm 1 mps 743 mmHg 82%
    20:00 +7°C° 0 mm 1 mps 743 mmHg 82%
    21:00 +5°C° 0 mm 2 mps 743 mmHg 83%
    22:00 +5°C° 0 mm 2 mps 743 mmHg 83%
    23:00 +5°C° 0.1 mm 2 mps 743 mmHg 84%

    18 December, Tuesday

    Time Temperature Precipitation Wind Pressure Humidity
    00:00 +5°C° 0.1 mm 2 mps 743 mmHg 84%
    01:00 +5°C° 0.1 mm 2 mps 743 mmHg 85%
    02:00 +4°C° 0.2 mm 3 mps 743 mmHg 84%
    03:00 +3°C° 0.2 mm 3 mps 743 mmHg 84%
    04:00 +3°C° 0.2 mm 4 mps 743 mmHg 83%
    05:00 +3°C° 0.2 mm 4 mps 743 mmHg 82%
    06:00 +3°C° 0.2 mm 4 mps 743 mmHg 81%
    07:00 +1°C° 0.2 mm 4 mps 744 mmHg 80%
    08:00 +2°C° 0.1 mm 5 mps 744 mmHg 78%
    09:00 +2°C° 0.1 mm 5 mps 744 mmHg 76%
    10:00 +3°C° 0.1 mm 6 mps 744 mmHg 74%
    11:00 +3°C° 0 mm 5 mps 744 mmHg 73%
    12:00 +5°C° 0 mm 5 mps 744 mmHg 72%
    13:00 +5°C° 0 mm 5 mps 744 mmHg 71%
    14:00 +5°C° 0 mm 5 mps 744 mmHg 73%
    15:00 +4°C° 0 mm 4 mps 744 mmHg 75%
    16:00 +3°C° 0 mm 4 mps 745 mmHg 76%
    17:00 +3°C° 0 mm 4 mps 745 mmHg 77%
    18:00 +1°C° 0 mm 4 mps 745 mmHg 78%
    19:00 +1°C° 0 mm 4 mps 746 mmHg 79%
    20:00 0°C° 0 mm 4 mps 746 mmHg 79%
    21:00 0°C° 0 mm 4 mps 747 mmHg 79%
    22:00 0°C° 0 mm 4 mps 747 mmHg 79%
    23:00 -1°C° 0 mm 4 mps 747 mmHg 78%
    Show more